Flag for Russia Weather past 2 weeks in Kazan, Russia

Now
70 °F

Partly sunny.


Feels Like: 70 °F
Forecast: 53 / 74 °F
Wind: 10 mph from Northwest

Location: Kazan'

Current Time: Aug 23, 2014 at 12:08:50 PM

Latest Report: Aug 23, 2014 at 11:30 AM


Visibility: N/A

Pressure: 29.86 "Hg

Humidity: 69%

Dew point: 59 °F

Location of KazanLocation

Historic Weather in Kazan — Graph

°F

Kazan temperature yesterday

Maximum temperature yesterday: 82 °F (at 1:30 PM)
Minimum temperature yesterday: 57 °F (at 4:30 AM)
Average temperature yesterday: 70 °F

Past Weeks' High & Low Weather Summary

 TemperatureHumidityPressure
High95 °F (Aug 16, 2:30 PM)100% (Aug 10, 4:30 AM)30.07 "Hg (Aug 10, 4:30 AM)
Low55 °F (Aug 13, 2:30 AM)26% (Aug 9, 4:30 PM)29.56 "Hg (Aug 10, 2:30 AM)
Average70 °F69%29.83 "Hg
* Reported Aug 8 10:00 AM — Aug 23 10:30 AM, Kazan, Weather by CustomWeather, © 2014

Note: Actual official high and low records may vary slightly from our data, if they occured in-between our weather recording intervals... More about our weather records

Advertising

Kazan weather history for previous 24 hours

 ConditionsComfort  
Time TempWeatherWind HumidityBarometerVisibility
10:30 AM
Aug 23
75 °FBroken clouds.8 mph47%29.83 "HgN/A
10:00 AM75 °FBroken clouds.3 mph47%29.83 "HgN/A
9:30 AM72 °FBroken clouds.3 mph61%29.83 "HgN/A
9:00 AM72 °FSunny.3 mph65%29.83 "Hg10 mi
8:30 AM70 °FSunny.3 mph73%29.83 "Hg10 mi
8:00 AM70 °FSunny.3 mph73%29.83 "Hg10 mi
7:30 AM64 °FSunny.3 mph73%29.83 "Hg10 mi
7:00 AM57 °FSunny.No wind88%29.83 "Hg10 mi
6:30 AM59 °FSunny.3 mph82%29.83 "Hg10 mi
6:00 AM57 °FClear.3 mph82%29.83 "Hg10 mi
5:30 AM57 °FClear.6 mph82%29.83 "Hg10 mi
5:00 AM59 °FClear.6 mph82%29.83 "Hg10 mi
4:30 AM59 °FClear.6 mph82%29.83 "Hg10 mi
4:00 AM57 °FClear.3 mph82%29.83 "Hg10 mi
3:30 AM59 °FClear.3 mph82%29.83 "Hg10 mi
3:00 AM59 °FClear.3 mph82%29.83 "Hg10 mi
2:30 AM59 °FClear.No wind82%29.83 "Hg10 mi
2:00 AM61 °FClear.3 mph72%29.83 "Hg10 mi
1:30 AM61 °FClear.3 mph77%29.83 "Hg10 mi
1:00 AM61 °FClear.3 mph77%29.86 "Hg10 mi
12:30 AM63 °FClear.No wind73%29.86 "Hg10 mi
12:00 AM64 °FClear.No wind73%29.86 "Hg10 mi
11:30 PM
Aug 22
61 °FClear.No wind77%29.86 "Hg10 mi
11:00 PM63 °FClear.3 mph73%29.86 "Hg10 mi
10:30 PM64 °FClear.3 mph68%29.86 "Hg10 mi
10:00 PM66 °FClear.3 mph64%29.86 "Hg10 mi
9:30 PM68 °FPassing clouds.3 mph60%29.86 "Hg3 mi
9:00 PM68 °FScattered clouds.3 mph60%29.86 "Hg3 mi
8:30 PM68 °FSunny.6 mph60%29.86 "Hg10 mi
8:00 PM72 °FSunny.3 mph57%29.86 "Hg10 mi
7:30 PM73 °FSunny.6 mph53%29.86 "Hg10 mi
7:00 PM75 °FSunny.6 mph47%29.86 "Hg10 mi
6:30 PM77 °FSunny.6 mph44%29.86 "Hg10 mi
6:00 PM81 °FSunny.3 mph34%29.86 "Hg10 mi
5:30 PM81 °FSunny.3 mph32%29.89 "Hg10 mi
5:00 PM81 °FSunny.6 mph32%29.89 "Hg10 mi
4:30 PM82 °FSunny.3 mph30%29.89 "Hg10 mi
4:00 PM82 °FSunny.6 mph30%29.89 "Hg10 mi
3:30 PM81 °FSunny.8 mph34%29.89 "Hg10 mi
3:00 PM82 °FSunny.8 mph30%29.89 "Hg10 mi
2:30 PM81 °FSunny.8 mph32%29.89 "Hg10 mi
2:00 PM81 °FSunny.8 mph30%29.89 "Hg10 mi
1:30 PM82 °FSunny.6 mph30%29.92 "Hg10 mi
1:00 PM81 °FSunny.8 mph34%29.92 "Hg10 mi
12:30 PM81 °FSunny.8 mph34%29.92 "Hg10 mi
12:00 PM81 °FSunny.10 mph32%29.92 "Hg10 mi
Weather by CustomWeather, © 2014

See weather overviewHow to use our weather pages